{"data":{"norad_id":52842,"intl_designator":"2022-062N","name":"STARLINK-4046","alt_names":[],"object_type":"PAYLOAD","status":"ACTIVE","operator":null,"country":"US","launch_date":"2022-06-17","launch_site_code":"AFETR","launch_vehicle":null,"mission":null,"orbit_class":"UNKNOWN","rcs_meters":null,"size_class":null,"mass_kg":null,"dimensions":null,"purposes":["comms"],"wikipedia_slug":null,"has_3d_model":false,"image_url":null,"decayed_at":null,"tle_current":{"epoch":"2026-09-19T22:19:59.284128Z","epoch_age_seconds":115654,"freshness":"FRESH","line1":"1 52842U 22062N   26262.93054727  .00001019  00000+0  41287-4 0  9994","line2":"2 52842  53.1599 230.5875 0000981 102.4038 257.7075 15.34389353235266","mean_motion":15.34389353,"eccentricity":9.81e-5,"inclination_deg":53.1599,"raan_deg":230.5875,"arg_perigee_deg":102.4038,"mean_anomaly_deg":257.7075,"bstar":4.1287e-5,"rev_number":23526,"period_min":93.848409283116,"perigee_km":462.06379598588,"apogee_km":463.40597504981,"semimajor_km":6840.8718855178,"source":"CELESTRAK","updated_at":"2026-09-20T09:00:40.113212Z"}}}